Location: *
(46.3500°N, 10.9000°E)
Time: 01:24:10
(UTC+00:00)

Vanguard 2 - Visible Passes

Search period start: 01 December 2021 00:00
Search period end: 11 December 2021 00:00
Orbit: 554 x 2936 km, 32.9° (Epoch: 30 November)

Date Brightness Start Highest point End Pass type
(mag) Time Alt. Az. Time Alt. Az. Time Alt. Az.
01 Dec 10.7 17:26:30 10° WSW 17:33:58 29° SSW 17:44:46 10° SE visible
01 Dec 11.4 19:37:10 10° WSW 19:43:28 16° SSW 19:51:02 10° S visible
02 Dec 10.9 17:44:30 10° WSW 17:51:32 24° SSW 18:01:18 10° SSE visible
02 Dec 11.7 19:58:35 10° SW 20:00:58 11° SSW 20:03:29 10° SSW visible
03 Dec 10.4 15:54:08 10° WSW 16:00:06 28° S 16:08:57 10° SE visible
03 Dec 11.1 18:02:48 10° WSW 18:09:05 19° SSW 18:17:19 10° SSE visible
04 Dec 10.6 16:11:52 10° WSW 16:17:38 25° S 16:25:55 10° SE visible
04 Dec 11.4 18:21:47 10° SW 18:26:38 14° SSW 18:32:30 10° S visible
05 Dec 10.8 16:29:50 10° WSW 16:35:12 21° SSW 16:42:33 10° SSE visible
06 Dec 11.1 16:48:09 10° SW 16:52:45 17° SSW 16:58:40 10° SSE visible
07 Dec 11.3 17:07:22 10° SW 17:10:19 12° SSW 17:13:43 10° S visible
